Weather History for KAZC - February, 2014

Change the Weather History Date:

Sunday, February 9, 2014

  Actual Average (KCDC) Record (KCDC)
Temperature  
Mean Temperature 46 °F 32 °F  
Max Temperature 59 °F 45 °F 68 °F (1951)
Min Temperature 32 °F 19 °F -10 °F (1949)
Degree Days  
Heating Degree Days 20 33  
Month to date heating degree days 303  
Since 1 July heating degree days 3978  
Cooling Degree Days 0 0  
Month to date cooling degree days 0  
Year to date cooling degree days 0  
Moisture  
Dew Point 38 °F    
Average Humidity 78    
Maximum Humidity 100    
Minimum Humidity 47    
Precipitation  
Precipitation 0.00 in 0.04 in 0.41 in (1959)
Month to date precipitation 0.29  
Year to date precipitation 1.15  
Sea Level Pressure  
Sea Level Pressure 30.14 in    
Wind  
Wind Speed 3 mph (WNW)    
Max Wind Speed 13 mph    
Max Gust Speed 17 mph    
Visibility 10 miles    
Events      
T = Trace of Precipitation, MM = Missing Value Source: NWS Daily Summary

Daily Weather History Graph

Daily Weather History Graph

Search for Another Location

Airport or City:

Trip Planner

Search our weather history database for the weather conditions in past years. The results will help you decide how hot, cold, wet, or windy it might be!

Date:

Astronomy

Feb. 09, 2014 Rise Set
Actual Time 7:27 AM MST 6:06 PM MST
Civil Twilight 7:00 AM MST 6:32 PM MST
Nautical Twilight 6:29 AM MST 7:03 PM MST
Astronomical Twilight 5:59 AM MST 7:33 PM MST
Moon 1:51 PM MST (2/9) 3:32 AM MST (2/9)
Length of Visible Light 11h 32m
Length of Day
10h 39m
Waxing Gibbous, 77% of the Moon is Illuminated
Feb 9
Waxing Gibbous
Feb 14
Full
Feb 22
Last Quarter
Mar 1
New
Mar 8
First Quarter

Hourly Weather History & Observations

Time (MST) Temp. Windchill Dew Point Humidity Pressure Visibility Wind Dir Wind Speed Gust Speed Precip Events Conditions
12:15 AM 35.2 °F - 34.5 °F 97% 30.22 in 10.0 mi Calm Calm - N/A   Clear
12:35 AM 33.6 °F 30.6 °F 33.1 °F 98% 30.21 in 10.0 mi East 3.5 mph - N/A   Clear
12:55 AM 32.9 °F - 32.7 °F 99% 30.22 in 10.0 mi Calm Calm - N/A   Clear
1:15 AM 33.3 °F 28.9 °F 33.1 °F 99% 30.22 in 10.0 mi SE 4.6 mph - N/A   Scattered Clouds
1:35 AM 33.3 °F 27.9 °F 33.1 °F 99% 30.22 in 10.0 mi ESE 5.8 mph - N/A   Mostly Cloudy
1:55 AM 33.8 °F - 33.6 °F 99% 30.23 in 10.0 mi Calm Calm - N/A   Mostly Cloudy
2:15 AM 35.1 °F - 34.7 °F 99% 30.23 in 10.0 mi Calm Calm - N/A   Overcast
2:35 AM 35.1 °F - 34.7 °F 99% 30.21 in 10.0 mi Calm Calm - N/A   Overcast
2:55 AM 35.1 °F - 34.7 °F 99% 30.21 in 10.0 mi Calm Calm - N/A   Overcast
3:15 AM 34.5 °F 31.6 °F 34.2 °F 99% 30.20 in 10.0 mi ESE 3.5 mph - N/A   Overcast
3:35 AM 34.9 °F - 34.7 °F 99% 30.19 in 10.0 mi Calm Calm - N/A   Overcast
3:55 AM 36.3 °F 32.5 °F 35.8 °F 98% 30.19 in 10.0 mi East 4.6 mph - N/A   Overcast
4:15 AM 37.0 °F 34.5 °F 36.3 °F 97% 30.19 in 10.0 mi SSE 3.5 mph - N/A   Overcast
4:35 AM 37.4 °F 33.8 °F 36.7 °F 97% 30.16 in 10.0 mi ESE 4.6 mph - N/A   Overcast
4:55 AM 37.9 °F - 36.9 °F 96% 30.18 in 10.0 mi Calm Calm - N/A   Overcast
5:15 AM 37.8 °F - 36.7 °F 96% 30.16 in 10.0 mi Calm Calm - N/A   Overcast
5:35 AM 37.4 °F - 36.5 °F 97% 30.15 in 10.0 mi Calm Calm - N/A   Overcast
5:55 AM 37.0 °F - 36.5 °F 98% 30.15 in 10.0 mi Calm Calm - N/A   Overcast
6:15 AM 36.1 °F 32.3 °F 35.8 °F 99% 30.15 in 10.0 mi East 4.6 mph - N/A   Mostly Cloudy
6:35 AM 36.3 °F - 36.1 °F 99% 30.16 in 10.0 mi Calm Calm - N/A   Mostly Cloudy
6:55 AM 36.5 °F - 36.1 °F 99% 30.16 in 10.0 mi Calm Calm - N/A   Scattered Clouds
7:15 AM 35.4 °F 32.6 °F 34.9 °F 98% 30.15 in 10.0 mi SE 3.5 mph - N/A   Scattered Clouds
7:35 AM 34.7 °F - 34.7 °F 100% 30.15 in 10.0 mi Calm Calm - N/A   Scattered Clouds
7:55 AM 35.8 °F 33.0 °F 35.4 °F 99% 30.15 in 10.0 mi ESE 3.5 mph - N/A   Mostly Cloudy
8:15 AM 37.6 °F - 36.7 °F 97% 30.15 in 10.0 mi Calm Calm - N/A   Mostly Cloudy
8:35 AM 40.6 °F - 38.1 °F 91% 30.16 in 10.0 mi Calm Calm - N/A   Scattered Clouds
8:55 AM 42.8 °F 41.1 °F 39.0 °F 86% 30.15 in 10.0 mi SE 3.5 mph - N/A   Clear
9:15 AM 45.0 °F - 38.1 °F 77% 30.16 in 10.0 mi Calm Calm - N/A   Clear
9:35 AM 46.6 °F - 37.9 °F 72% 30.16 in 10.0 mi Calm Calm - N/A   Clear
9:55 AM 49.3 °F - 38.3 °F 66% 30.16 in 10.0 mi East 3.5 mph - N/A   Mostly Cloudy
10:15 AM 50.9 °F - 38.7 °F 63% 30.15 in 10.0 mi Calm Calm - N/A   Mostly Cloudy
10:35 AM 51.4 °F - 38.1 °F 60% 30.15 in 10.0 mi Calm Calm - N/A   Scattered Clouds
10:55 AM 52.3 °F - 38.1 °F 58% 30.16 in 10.0 mi SW 3.5 mph - N/A   Clear
11:15 AM 53.6 °F - 37.6 °F 55% 30.15 in 10.0 mi West 6.9 mph - N/A   Scattered Clouds
11:35 AM 55.2 °F - 37.8 °F 52% 30.16 in 10.0 mi West 12.7 mph 17.3 mph N/A   Scattered Clouds
11:55 AM 55.4 °F - 37.9 °F 52% 30.16 in 10.0 mi West 11.5 mph - N/A   Scattered Clouds
12:15 PM 55.9 °F - 38.3 °F 52% 30.15 in 10.0 mi West 9.2 mph - N/A   Scattered Clouds
12:35 PM 56.5 °F - 38.7 °F 51% 30.13 in 10.0 mi West 12.7 mph 17.3 mph N/A   Clear
12:55 PM 57.2 °F - 38.8 °F 50% 30.13 in 10.0 mi West 6.9 mph - N/A   Clear
1:15 PM 57.7 °F - 39.4 °F 50% 30.11 in 10.0 mi West 9.2 mph - N/A   Scattered Clouds
1:35 PM 58.3 °F - 39.6 °F 50% 30.11 in 10.0 mi SW 5.8 mph 9.2 mph N/A   Clear
1:55 PM 58.8 °F - 39.4 °F 49% 30.09 in 10.0 mi West 4.6 mph - N/A   Clear
2:15 PM 58.8 °F - 39.6 °F 49% 30.09 in 10.0 mi NNE 5.8 mph - N/A   Clear
2:35 PM 59.2 °F - 39.9 °F 49% 30.09 in 10.0 mi Calm Calm - N/A   Clear
2:55 PM 59.2 °F - 39.2 °F 48% 30.08 in 10.0 mi WNW 5.8 mph - N/A   Clear
3:15 PM 59.7 °F - 39.4 °F 47% 30.08 in 10.0 mi WNW 9.2 mph - N/A   Clear
3:35 PM 59.7 °F - 39.6 °F 47% 30.08 in 10.0 mi NW 8.1 mph - N/A   Clear
3:55 PM 59.7 °F - 39.6 °F 47% 30.09 in 10.0 mi NW 8.1 mph - N/A   Scattered Clouds
4:15 PM 59.2 °F - 39.6 °F 48% 30.08 in 10.0 mi WNW 5.8 mph - N/A   Overcast
4:35 PM 57.7 °F - 39.9 °F 51% 30.08 in 10.0 mi NW 6.9 mph - N/A   Overcast
4:55 PM 56.8 °F - 40.1 °F 54% 30.09 in 10.0 mi WNW 5.8 mph - N/A   Overcast
5:15 PM 56.1 °F - 40.6 °F 56% 30.08 in 10.0 mi West 4.6 mph - N/A   Overcast
5:35 PM 55.0 °F - 40.8 °F 59% 30.08 in 10.0 mi WNW 3.5 mph - N/A   Mostly Cloudy
5:55 PM 54.0 °F - 41.2 °F 62% 30.09 in 10.0 mi NNW 3.5 mph - N/A   Scattered Clouds
6:15 PM 52.7 °F - 41.0 °F 64% 30.09 in 10.0 mi NNW 3.5 mph - N/A   Scattered Clouds
6:35 PM 51.1 °F - 40.5 °F 67% 30.09 in 10.0 mi NNW 3.5 mph - N/A   Clear
6:55 PM 49.5 °F - 40.3 °F 71% 30.10 in 10.0 mi NW 4.6 mph - N/A   Clear
7:15 PM 47.8 °F - 40.3 °F 75% 30.10 in 10.0 mi Calm Calm - N/A   Clear
7:35 PM 45.7 °F - 39.7 °F 80% 30.10 in 10.0 mi Calm Calm - N/A   Clear
7:55 PM 45.0 °F - 39.6 °F 81% 30.10 in 10.0 mi Calm Calm - N/A   Clear
8:15 PM 43.9 °F - 39.2 °F 84% 30.09 in 10.0 mi Calm Calm - N/A   Clear
8:35 PM 43.2 °F - 39.2 °F 86% 30.10 in 10.0 mi Calm Calm - N/A   Scattered Clouds
8:55 PM 43.3 °F 41.7 °F 39.2 °F 85% 30.10 in 10.0 mi North 3.5 mph - N/A   Scattered Clouds
9:15 PM 42.4 °F - 38.8 °F 87% 30.10 in 10.0 mi Calm Calm - N/A   Scattered Clouds
9:35 PM 42.3 °F - 39.6 °F 90% 30.10 in 10.0 mi Calm Calm - N/A   Mostly Cloudy
9:55 PM 41.0 °F - 38.8 °F 92% 30.10 in 10.0 mi Calm Calm - N/A   Mostly Cloudy
10:15 PM 40.3 °F 37.1 °F 38.5 °F 93% 30.10 in 10.0 mi East 4.6 mph - N/A   Mostly Cloudy
10:35 PM 39.7 °F 36.5 °F 38.1 °F 94% 30.10 in 10.0 mi SE 4.6 mph - N/A   Scattered Clouds
10:55 PM 39.2 °F 35.0 °F 37.6 °F 94% 30.10 in 10.0 mi SE 5.8 mph - N/A   Clear
11:15 PM 38.7 °F 33.6 °F 37.4 °F 95% 30.08 in 10.0 mi ESE 6.9 mph - N/A   Clear
11:35 PM 38.3 °F 34.8 °F 37.0 °F 95% 30.09 in 10.0 mi ESE 4.6 mph - N/A   Clear
11:55 PM 37.9 °F 35.5 °F 36.1 °F 93% 30.10 in 10.0 mi East 3.5 mph - N/A   Clear